Location: Newark
(45.7425°N, 0.7617°W)
Time: 01:58:31
(UTC+00:00)

N. Korean satellite - Pass Details

Date: 30 January 2020
Orbit: 456 x 505 km, 97.2° (Epoch: 21 February)

Event Time Altitude Azimuth Distance (km) Brightness Sun altitude
Rises 05:08:36 0° 25° (NNE) 2,558 10.5 -24.3°
Reaches altitude 10° 05:10:58 10° 40° (NE) 1,681 9.8 -23.9°
Maximum altitude 05:13:55 23° 95° (E) 1,084 9.1 -23.4°
Drops below altitude 10° 05:16:52 10° 149° (SSE) 1,690 9.7 -22.9°
Sets 05:19:15 0° 164° (SSE) 2,575 10.5 -22.5°
